Regional Weather Roundup
Issued by NWS

Home | Current Version | Previous Version | Text Only | Print | Product List | Glossary On
Versions: 1 2 3 4 5 6 7 8 9 10 11 12 13 14 15 16 17 18 19 20 21 22 23 24 25 26 27 28
000
ASUS45 KGTF 251810
RWRMT
MONTANA HOURLY WEATHER ROUNDUP
NATIONAL WEATHER SERVICE GREAT FALLS MT
1200 PM MDT SAT APR 25 2015

NOTE: "FAIR" INDICATES FEW OR NO CLOUDS BELOW 12000 FEET WITH NO
SIGNIFICANT WEATHER AND/OR OBSTRUCTIONS TO VISIBILITY.

MTZ001>007-043-251900-
WEST OF THE DIVIDE

CITY           SKY/WX    TMP DP  RH WIND       PRES   REMARKS
KALISPELL      PTCLDY    51  26  37 VRB3      29.83S
MISSOULA       MOSUNNY   50  24  36 CALM      29.84F
BUTTE          PTSUNNY   41  22  46 NW7       29.81F
DEER LODGE       N/A     45  23  42 CALM      29.85S
EUREKA           N/A     52  28  40 W3        29.83F
HAMILTON         N/A     48  18  29 NE3       29.81F
LIBBY            N/A     48  27  43 E7        29.84F
$$

MTZ008-052>055-251900-
SOUTHWEST MONTANA

CITY           SKY/WX    TMP DP  RH WIND       PRES   REMARKS
BOZEMAN        CLOUDY    39  35  86 CALM      29.83S
DILLON         CLOUDY    42  27  55 CALM      29.80F
$$

MTZ009-010-012-014-046-048-049-054-251900-
EAST SLOPES AND CENTRAL MONTANA

CITY           SKY/WX    TMP DP  RH WIND       PRES   REMARKS
CUT BANK       SUNNY     47  29  49 N18G24    29.81S
GREAT FALLS    CLOUDY    46  28  49 CALM      29.80S
MALMSTROM AFB  CLOUDY    47  31  53 W6G16     29.81S
HELENA         CLOUDY    50  23  34 CALM      29.79F
$$

MTZ011-013-016-021-045-047-050-051-251900-
NORTH CENTRAL MONTANA

CITY           SKY/WX    TMP DP  RH WIND       PRES   REMARKS
HAVRE          CLOUDY    49  35  58 W14G22    29.79R
LEWISTOWN      CLOUDY    44  33  65 W10       29.79R
CHINOOK          N/A     52  36  54 W14G21    29.76F
FORT BENTON      N/A     52  27  37 W10G16    29.80S
$$

MTZ017>020-022>042-056>058-061-062-251900-
EASTERN PLAINS

CITY           SKY/WX    TMP DP  RH WIND       PRES   REMARKS
BAKER          CLOUDY    49  43  80 SE20      29.70R
BILLINGS       LGT RAIN  42  36  79 NE7       29.80S
GLASGOW        LGT RAIN  43  40  89 NW15      29.70R FOG
JORDAN           N/A     41  39  93 NW13      29.75R
LIVINGSTON     CLOUDY    42  34  73 W12       29.79S
MILES CITY     CLOUDY    52  41  66 NW20G28   29.68R
SIDNEY         CLOUDY    57  43  58 SE14      29.72R
WOLF POINT     PTSUNNY   61  42  49 SW8       29.66S
BIG TIMBER       N/A     43  34  70 NE3       29.79S
FORSYTH          N/A     39  39 100 W14       29.77R WCI  31
PLENTYWOOD       N/A     55  43  62 SE21G28   29.71S
POPLAR           N/A     63  45  51 SE10      29.66S
$$

REGIONAL REPORTS...DAKOTAS

CITY           SKY/WX    TMP DP  RH WIND       PRES   REMARKS
WILLISTON      CLOUDY    50  42  74 E17       29.74S
MINOT          CLOUDY    51  39  63 E16G24    29.80F
DICKINSON      CLOUDY    45  43  93 SE15      29.73S FOG
BEACH          CLOUDY    48  46  93 SE18G29   29.71R
CROSBY         CLOUDY    48  45  87 SE17G23   29.78R
WATFORD CITY   CLOUDY    48  41  76 SE18      29.73S
BISMARCK       CLOUDY    48  42  80 SE16      29.81S
GRAND FORKS    MOSUNNY   56  37  49 SE12G18   29.90F
FARGO          CLOUDY    49  37  63 SE8       29.90S
BUFFALO SD       N/A     47  43  86 SE12      29.66S
RAPID CITY     CLOUDY    49  46  90 SE15      29.72R FOG
$$

REGIONAL REPORTS...WYOMING/IDAHO/WASHINGTON

CITY           SKY/WX    TMP DP  RH WIND       PRES   REMARKS
GILLETTE       PTSUNNY   53  42  66 NW22      29.68R
SHERIDAN       CLOUDY    39  34  82 NW23      29.77R WCI  28
BUFFALO WY     CLOUDY    41  35  79 N24G36    29.73R
CODY           CLOUDY    41  37  87 N12       29.77R
YELLOWSTONE LA   N/A     34  24  67 VRB5      29.81S
IDAHO FALLS    PTSUNNY   51  31  46 S15       29.81F
SALMON         MOSUNNY   46  23  39 E5        29.79F
BOISE          MOSUNNY   54  31  41 NW12      29.80F
SPOKANE        CLOUDY    47  34  60 SW13      29.86S
$$

REGIONAL REPORTS...ALBERTA

CITY           SKY/WX    TMP DP  RH WIND       PRES   REMARKS
EDMONTON       CLOUDY    39  18  41 E10G18    29.97S
CALGARY        CLOUDY    39  30  70 N13G18    29.87R WCI  32
LETHBRIDGE     PTSUNNY   45  30  57 NW13      29.85S
MEDICINE HAT   CLOUDY    37  34  87 NW10      29.83S WCI  30
$$

REGIONAL REPORTS...SASKATCHEWAN

CITY           SKY/WX    TMP DP  RH WIND       PRES   REMARKS
SWIFT CURRENT  LGT RAIN  36  34  93 N10       29.76R FOG     WCI  28
REGINA         LGT RAIN  46  45  93 SE18      29.77S FOG
SASKATOON      FRZ RAIN  30  28  93 NE21G28   29.90F WCI  17
$$



USA.gov is the U.S. government's official web portal to all federal, state and local government web resources and services.